Home > Weather > Coral Harbour > Past weeks

Flag for Canada Weather for the Past 2 Weeks in Coral Harbour, Nunavut, Canada

Now
-15 °F

Snow flurries. Passing clouds.


Feels Like: -15 °F
Forecast: -28 / -20 °F
Wind: No wind

Location: Coral Harbour

Current Time: Feb 6, 2016 at 9:46:48 AM

Latest Report: Feb 6, 2016 at 9:00 AM


Visibility: 15 mi

Pressure: 30.08 "Hg

Humidity: 76%

Dew point: -20 °F

Location of Coral HarbourLocation

Historic Weather in Coral Harbour — Graph

°F

Coral Harbour Temperature Yesterday

Maximum temperature yesterday: -22 °F (at 11:00 PM)
Minimum temperature yesterday: -31 °F (at 6:00 AM)
Average temperature yesterday: -28 °F

High & Low Weather Summary for the Past Weeks

 TemperatureHumidityPressure
High-6 °F (Jan 31, 11:00 AM)84% (Jan 30, 3:00 AM)30.18 "Hg (Jan 30, 3:00 AM)
Low-35 °F (Jan 27, 7:00 PM)55% (Jan 24, 8:00 PM)29.45 "Hg (Jan 26, 11:00 AM)
Average-23 °F70%29.80 "Hg
* Reported Jan 22 8:00 AM — Feb 6 8:00 AM, Coral Harbour, Weather by CustomWeather, © 2016

Note: Actual official high and low records may vary slightly from our data, if they occured in-between our weather recording intervals... More about our weather records

Advertising

Coral Harbour Weather History for the Previous 24 Hours

 ConditionsComfort  
Time TempWeatherWind HumidityBarometerVisibility
8:00 AM
Sat, Feb 6
-15 °FSnow flurries. Overcast.6 mph76%30.08 "Hg15 mi
7:00 AM-17 °FSnow flurries. Overcast.12 mph76%30.09 "Hg15 mi
6:00 AM-18 °FSnow flurries. Overcast.12 mph75%30.09 "Hg15 mi
5:00 AM-20 °FSnow flurries. Overcast.8 mph75%30.09 "Hg15 mi
4:00 AM-20 °FSnow flurries. Overcast.12 mph68%30.10 "Hg15 mi
3:00 AM-20 °FSnow flurries. Overcast.12 mph68%30.11 "Hg15 mi
2:00 AM-18 °FSnow flurries. Mostly cloudy.9 mph69%30.12 "Hg15 mi
1:00 AM-18 °FSnow flurries. Mostly cloudy.12 mph75%30.13 "Hg15 mi
12:00 AM-20 °FSnow flurries. Passing clouds.12 mph68%30.14 "Hg15 mi
11:00 PM
Fri, Feb 5
-22 °FSnow flurries. Passing clouds.12 mph75%30.14 "Hg15 mi
10:00 PM-24 °FSnow flurries. Passing clouds.9 mph75%30.15 "Hg15 mi
9:00 PM-26 °FSnow flurries. Passing clouds.10 mph67%30.16 "Hg15 mi
8:00 PM-27 °FSnow flurries. Passing clouds.9 mph67%30.17 "Hg15 mi
7:00 PM-29 °FSnow flurries. Passing clouds.9 mph74%30.18 "Hg15 mi
6:00 PM-29 °FSnow flurries. Passing clouds.12 mph74%30.17 "Hg15 mi
5:00 PM-27 °FSnow flurries. Scattered clouds.9 mph74%30.17 "Hg15 mi
4:00 PM-27 °FSnow flurries. Scattered clouds.10 mph67%30.17 "Hg15 mi
3:00 PM-27 °FSnow flurries. Scattered clouds.12 mph67%30.16 "Hg15 mi
2:00 PM-27 °FSnow flurries. Scattered clouds.9 mph74%30.16 "Hg15 mi
1:00 PM-26 °FSnow flurries. Scattered clouds.8 mph67%30.16 "Hg15 mi
12:00 PM-26 °FSnow flurries. Partly sunny.7 mph67%30.16 "Hg15 mi
11:00 AM-26 °FSnow flurries. Broken clouds.9 mph67%30.16 "Hg15 mi
10:00 AM-29 °FSnow flurries. Partly cloudy.8 mph74%30.16 "Hg15 mi
9:00 AM-31 °FSnow flurries. Passing clouds.12 mph67%30.16 "Hg15 mi
Weather by CustomWeather, © 2016

See weather overviewHow to use our weather pages